TimePST,TemperatureF,Dew PointF,Humidity,Sea Level PressureIn,VisibilityMPH,Wind Direction,Wind SpeedMPH,Gust SpeedMPH,PrecipitationIn,Events,Conditions,WindDirDegrees,DateUTC
12:19 AM,41.0,39.2,93,30.06,1.8,Calm,Calm,-,N/A,,Mostly Cloudy,0,2012-12-29 08:19:00
12:49 AM,41.0,39.2,93,30.06,1.5,Calm,Calm,-,N/A,,Mostly Cloudy,0,2012-12-29 08:49:00
12:53 AM,41.0,39.0,93,30.06,1.5,Calm,Calm,-,N/A,,Mostly Cloudy,0,2012-12-29 08:53:00
1:11 AM,39.2,39.2,100,30.06,1.8,Calm,Calm,-,N/A,,Overcast,0,2012-12-29 09:11:00
1:53 AM,41.0,39.9,96,30.06,0.2,Calm,Calm,-,N/A,Fog,Fog,0,2012-12-29 09:53:00
2:53 AM,42.1,41.0,96,30.05,0.5,East,4.6,-,N/A,Fog,Fog,80,2012-12-29 10:53:00
3:21 AM,42.8,41.0,93,30.04,0.2,Calm,Calm,-,N/A,Fog,Fog,0,2012-12-29 11:21:00
3:53 AM,41.0,39.9,96,30.03,0.2,Calm,Calm,-,N/A,Fog,Fog,0,2012-12-29 11:53:00
3:58 AM,42.8,39.2,87,30.01,0.5,North,3.5,-,N/A,Fog,Fog,350,2012-12-29 11:58:00
4:11 AM,42.8,41.0,93,30.00,1.2,NNE,3.5,-,N/A,,Overcast,30,2012-12-29 12:11:00
4:23 AM,42.8,41.0,93,30.00,3.0,NNE,3.5,-,N/A,,Overcast,30,2012-12-29 12:23:00
4:48 AM,41.0,39.2,93,30.00,2.5,ENE,3.5,-,N/A,,Overcast,70,2012-12-29 12:48:00
4:53 AM,42.1,39.9,92,30.01,2.5,East,3.5,-,N/A,,Overcast,80,2012-12-29 12:53:00
5:00 AM,42.8,39.2,87,30.00,3.0,Calm,Calm,-,N/A,,Overcast,0,2012-12-29 13:00:00
5:53 AM,42.1,41.0,96,30.03,3.0,SW,8.1,-,N/A,,Overcast,220,2012-12-29 13:53:00
6:53 AM,42.1,41.0,96,30.04,3.0,SSW,3.5,-,N/A,,Overcast,200,2012-12-29 14:53:00
7:30 AM,42.8,39.2,87,30.04,2.5,South,3.5,-,N/A,,Overcast,170,2012-12-29 15:30:00
7:53 AM,43.0,39.9,89,30.06,3.0,South,5.8,-,N/A,,Overcast,170,2012-12-29 15:53:00
8:53 AM,45.0,41.0,86,30.07,3.0,East,8.1,-,0.02,Rain,Light Rain,90,2012-12-29 16:53:00
9:53 AM,46.9,41.0,80,30.09,8.0,ESE,12.7,18.4,0.00,,Overcast,120,2012-12-29 17:53:00
10:53 AM,48.0,42.1,80,30.07,5.0,SE,4.6,-,N/A,,Haze,130,2012-12-29 18:53:00
11:53 AM,50.0,42.1,74,30.04,6.0,East,3.5,-,N/A,,Haze,90,2012-12-29 19:53:00
12:53 PM,51.1,41.0,68,30.01,8.0,Calm,Calm,-,N/A,,Overcast,0,2012-12-29 20:53:00
1:53 PM,52.0,41.0,66,30.00,9.0,ENE,4.6,-,N/A,,Partly Cloudy,60,2012-12-29 21:53:00
2:53 PM,53.1,41.0,64,30.01,9.0,North,6.9,-,N/A,,Partly Cloudy,10,2012-12-29 22:53:00
3:53 PM,53.1,39.9,61,30.02,10.0,North,5.8,-,N/A,,Partly Cloudy,350,2012-12-29 23:53:00
4:53 PM,48.9,39.0,69,30.02,10.0,North,3.5,-,N/A,,Clear,10,2012-12-30 00:53:00
5:53 PM,46.0,39.0,76,30.03,9.0,North,4.6,-,N/A,,Clear,360,2012-12-30 01:53:00
6:53 PM,44.1,37.9,79,30.04,8.0,NW,5.8,-,N/A,,Clear,320,2012-12-30 02:53:00
7:53 PM,44.1,41.0,89,30.06,6.0,NW,6.9,-,N/A,,Overcast,320,2012-12-30 03:53:00
8:53 PM,44.1,39.9,85,30.07,5.0,WNW,6.9,-,N/A,,Partly Cloudy,300,2012-12-30 04:53:00
9:53 PM,39.9,37.9,93,30.07,4.0,NW,5.8,-,N/A,,Clear,320,2012-12-30 05:53:00
10:53 PM,39.9,37.9,93,30.09,4.0,NNW,6.9,-,N/A,,Clear,330,2012-12-30 06:53:00
11:53 PM,39.9,37.9,93,30.09,5.0,NW,8.1,-,N/A,,Clear,310,2012-12-30 07:53:00